Vernon, TX

9:52 PM CST on December 14, 2017 (GMT -0600)
Vernon

Weather History for KF05 - September, 2013

Change the Weather History Date:

Monday, September 9, 2013

  Actual Average (KLTS) Record (KLTS)
Temperature  
Mean Temperature 84 °F -  
Max Temperature 101 °F 87 °F 98 °F (2016)
Min Temperature 72 °F 65 °F 50 °F (2004)
Cooling Degree Days 19    
Growing Degree Days 34 (Base 50)    
Moisture  
Dew Point 58 °F    
Average Humidity 42    
Maximum Humidity 68    
Minimum Humidity 25    
Precipitation  
Precipitation 0.00 in - - ()
Sea Level Pressure  
Sea Level Pressure 29.95 in    
Wind  
Wind Speed 9 mph (South)    
Max Wind Speed 17 mph    
Max Gust Speed 24 mph    
Visibility 10 miles    
Events      
Averages and records for this station are not official NWS values.
T = Trace of Precipitation, MM = Missing Value Source: NWS Daily Summary

Daily Weather History Graph

Daily Weather History Graph

Search for Another Location

Airport or City:

Trip Planner

Search our weather history database for the weather conditions in past years. The results will help you decide how hot, cold, wet, or windy it might be!

Date:

Astronomy

Sep. 09, 2013 Rise Set
Actual Time 7:16 AM CDT 7:51 PM CDT
Civil Twilight 6:51 AM CDT 8:17 PM CDT
Nautical Twilight 6:21 AM CDT 8:46 PM CDT
Astronomical Twilight 5:50 AM CDT 9:17 PM CDT
Moon 11:25 AM CDT (9/9) 10:23 PM CDT (9/9)
Length of Visible Light 13h 26m
Length of Day
12h 35m
Waxing Crescent, 19% of the Moon is Illuminated
Sep 9
Waxing Crescent
Sep 12
First Quarter
Sep 19
Full
Sep 26
Last Quarter
Oct 4
New

Hourly Weather History & Observations

Time (CDT) Temp. Heat Index Dew Point Humidity Pressure Visibility Wind Dir Wind Speed Gust Speed Precip Events Conditions
12:15 AM 84.0 °F 83.2 °F 56.3 °F 39% - 10.0 mi SSE 8.1 mph - N/A   Clear
12:35 AM 82.9 °F 82.3 °F 56.5 °F 40% 29.94 in 10.0 mi SSE 5.8 mph - N/A   Clear
12:55 AM 81.5 °F 81.3 °F 56.5 °F 42% 29.94 in 10.0 mi SSE 4.6 mph - N/A   Clear
1:15 AM 80.4 °F 80.6 °F 56.7 °F 44% 29.94 in 10.0 mi SSE 6.9 mph - N/A   Clear
1:35 AM 79.3 °F - 56.8 °F 46% 29.94 in 10.0 mi South 6.9 mph - N/A   Clear
1:55 AM 79.3 °F - 57.2 °F 47% 29.94 in 10.0 mi South 8.1 mph - N/A   Clear
2:15 AM 79.9 °F - 57.6 °F 46% 29.94 in 10.0 mi South 9.2 mph - N/A   Clear
2:35 AM 80.4 °F 80.9 °F 58.3 °F 47% 29.94 in 10.0 mi South 6.9 mph - N/A   Clear
2:55 AM 80.1 °F 80.7 °F 59.0 °F 48% 29.94 in 10.0 mi South 8.1 mph - N/A   Clear
3:15 AM 79.7 °F - 59.4 °F 50% 29.94 in 10.0 mi South 8.1 mph - N/A   Clear
3:35 AM 79.3 °F - 59.9 °F 51% 29.95 in 10.0 mi SSW 8.1 mph - N/A   Clear
3:55 AM 79.3 °F - 60.3 °F 52% 29.95 in 10.0 mi SSW 8.1 mph - N/A   Clear
4:15 AM 78.4 °F - 60.3 °F 53% 29.95 in 10.0 mi SSW 6.9 mph - N/A   Clear
4:35 AM 77.0 °F - 60.3 °F 56% 29.95 in 10.0 mi SSW 5.8 mph - N/A   Clear
4:55 AM 76.5 °F - 60.3 °F 57% 29.95 in 10.0 mi SSW 6.9 mph - N/A   Clear
5:15 AM 75.7 °F - 60.6 °F 59% 29.96 in 10.0 mi SSW 5.8 mph - N/A   Clear
5:35 AM 75.6 °F - 61.0 °F 60% 29.96 in 10.0 mi SSW 6.9 mph - N/A   Clear
5:55 AM 75.9 °F - 61.3 °F 60% 29.96 in 10.0 mi SSW 6.9 mph - N/A   Clear
6:15 AM 75.7 °F - 61.7 °F 62% 29.96 in 10.0 mi SSW 6.9 mph - N/A   Clear
6:35 AM 75.2 °F - 61.7 °F 63% 29.97 in 10.0 mi South 5.8 mph - N/A   Clear
6:55 AM 74.1 °F - 61.7 °F 65% 29.97 in 10.0 mi South 5.8 mph - N/A   Clear
7:15 AM 73.4 °F - 61.7 °F 67% 29.97 in 10.0 mi South 6.9 mph - N/A   Clear
7:35 AM 72.9 °F - 61.7 °F 68% 29.98 in 10.0 mi South 5.8 mph - N/A   Clear
7:55 AM 73.0 °F - 61.7 °F 67% 29.98 in 10.0 mi SSE 5.8 mph - N/A   Clear
8:15 AM 74.5 °F - 62.2 °F 66% 29.99 in 10.0 mi SSE 6.9 mph - N/A   Clear
8:35 AM 76.1 °F - 62.6 °F 63% 29.99 in 10.0 mi South 9.2 mph - N/A   Clear
8:55 AM 78.3 °F - 63.0 °F 59% 29.99 in 10.0 mi SSW 9.2 mph - N/A   Clear
9:15 AM 80.4 °F 81.7 °F 63.0 °F 55% 29.99 in 10.0 mi SW 10.4 mph - N/A   Clear
9:35 AM 81.9 °F 83.1 °F 63.1 °F 53% 30.00 in 10.0 mi SSW 10.4 mph - N/A   Clear
9:55 AM 82.9 °F 83.8 °F 62.4 °F 50% 30.00 in 10.0 mi SW 8.1 mph - N/A   Clear
10:15 AM 83.8 °F 84.5 °F 62.2 °F 48% 30.00 in 10.0 mi SSW 8.1 mph - N/A   Clear
10:35 AM 84.9 °F 85.4 °F 61.9 °F 46% 30.00 in 10.0 mi South 9.2 mph - N/A   Clear
10:55 AM 86.2 °F 86.3 °F 61.2 °F 43% 30.00 in 10.0 mi SSW 6.9 mph 16.1 mph N/A   Clear
11:15 AM 87.3 °F 87.2 °F 60.6 °F 41% 30.00 in 7.0 mi SSW 8.1 mph - N/A   Clear
11:35 AM 87.6 °F 87.4 °F 60.6 °F 40% 30.00 in 10.0 mi South 11.5 mph 16.1 mph N/A   Clear
11:55 AM 89.4 °F 88.7 °F 59.0 °F 36% 30.00 in 10.0 mi South 13.8 mph 17.3 mph N/A   Clear
12:15 PM 90.3 °F 89.3 °F 58.5 °F 34% 29.99 in 10.0 mi South 15.0 mph - N/A   Clear
12:35 PM 91.2 °F 89.9 °F 57.7 °F 32% 29.99 in 10.0 mi SSE 12.7 mph 20.7 mph N/A   Clear
12:55 PM 91.8 °F 90.6 °F 57.9 °F 32% 29.99 in 10.0 mi SSE 15.0 mph 24.2 mph N/A   Clear
1:15 PM 92.5 °F 91.3 °F 57.4 °F 31% 29.98 in 10.0 mi SSE 11.5 mph 24.2 mph N/A   Clear
1:35 PM 92.8 °F 91.7 °F 57.7 °F 31% 29.98 in 10.0 mi South 16.1 mph 23.0 mph N/A   Scattered Clouds
1:55 PM 93.4 °F 92.5 °F 58.1 °F 31% 29.97 in 10.0 mi South 12.7 mph 19.6 mph N/A   Clear
2:15 PM 93.4 °F 92.2 °F 57.6 °F 30% 29.96 in 10.0 mi SSE 17.3 mph 23.0 mph N/A   Scattered Clouds
2:35 PM 94.3 °F 92.7 °F 56.8 °F 28% 29.96 in 10.0 mi South 13.8 mph 20.7 mph N/A   Scattered Clouds
2:55 PM 94.6 °F 93.2 °F 56.5 °F 28% 29.95 in 10.0 mi South 10.4 mph 21.9 mph N/A   Scattered Clouds
3:15 PM 95.2 °F 93.6 °F 56.3 °F 27% 29.94 in 10.0 mi South 9.2 mph 20.7 mph N/A   Scattered Clouds
3:35 PM 94.5 °F 93.0 °F 56.3 °F 28% 29.93 in 10.0 mi South 15.0 mph 19.6 mph N/A   Clear
3:55 PM 96.1 °F 94.5 °F 56.3 °F 26% 29.93 in 10.0 mi South 17.3 mph - N/A   Scattered Clouds
4:15 PM 95.7 °F 94.3 °F 56.3 °F 27% 29.92 in 10.0 mi SE 12.7 mph 23.0 mph N/A   Scattered Clouds
4:35 PM 95.4 °F 93.8 °F 56.3 °F 27% 29.92 in 10.0 mi South 17.3 mph - N/A   Clear
4:55 PM 95.9 °F 93.9 °F 55.0 °F 25% 29.91 in 10.0 mi South 15.0 mph 20.7 mph N/A   Clear
5:15 PM 95.9 °F 93.9 °F 54.7 °F 25% 29.91 in 10.0 mi SSE 15.0 mph 18.4 mph N/A   Clear
5:35 PM 95.5 °F 93.7 °F 55.2 °F 26% 29.90 in 10.0 mi SSE 13.8 mph - N/A   Clear
5:55 PM 95.4 °F 93.5 °F 55.4 °F 26% 29.90 in 10.0 mi South 12.7 mph 19.6 mph N/A   Clear
6:15 PM 95.0 °F 93.4 °F 55.8 °F 27% 29.90 in 10.0 mi South 13.8 mph 18.4 mph N/A   Clear
6:35 PM 94.5 °F 92.6 °F 55.9 °F 27% 29.90 in 10.0 mi South 13.8 mph - N/A   Clear
6:55 PM 93.9 °F 92.0 °F 55.4 °F 27% 29.90 in 10.0 mi SSE 11.5 mph - N/A   Clear
7:15 PM 93.2 °F 91.0 °F 54.7 °F 27% 29.89 in 10.0 mi SSE 13.8 mph - N/A   Clear
7:35 PM 92.3 °F 89.9 °F 54.0 °F 27% 29.89 in 10.0 mi South 12.7 mph - N/A   Clear
7:55 PM 91.2 °F 89.1 °F 54.7 °F 29% 29.90 in 10.0 mi SSE 12.7 mph - N/A   Clear
8:15 PM 90.0 °F 87.9 °F 55.0 °F 30% 29.91 in 10.0 mi SSE 8.1 mph - N/A   Clear
8:35 PM 88.7 °F 86.9 °F 55.0 °F 32% 29.91 in 10.0 mi SSE 8.1 mph - N/A   Clear
8:55 PM 87.6 °F 85.9 °F 55.2 °F 33% 29.92 in 10.0 mi SSE 8.1 mph - N/A   Clear
9:15 PM 86.9 °F 85.3 °F 55.4 °F 34% 29.93 in 10.0 mi SSE 6.9 mph - N/A   Clear
9:35 PM 85.6 °F 84.3 °F 55.8 °F 36% 29.94 in 10.0 mi South 6.9 mph - N/A   Clear
9:55 PM 84.7 °F 83.6 °F 55.8 °F 37% 29.94 in 10.0 mi SSE 6.9 mph - N/A   Clear
10:15 PM 85.6 °F 84.3 °F 55.6 °F 36% 29.95 in 10.0 mi SSE 10.4 mph - N/A   Clear
10:35 PM 85.1 °F 83.9 °F 55.8 °F 37% 29.95 in 10.0 mi SSE 8.1 mph - N/A   Clear
10:55 PM 84.4 °F 83.5 °F 56.7 °F 39% 29.96 in 10.0 mi SSE 6.9 mph - N/A   Clear
11:15 PM 83.8 °F 83.3 °F 57.6 °F 41% 29.96 in 10.0 mi SSE 6.9 mph - N/A   Clear
11:35 PM 83.1 °F 82.7 °F 58.1 °F 42% 29.96 in 10.0 mi SSE 6.9 mph - N/A   Clear
11:55 PM 82.0 °F 82.0 °F 58.1 °F 44% 29.96 in 10.0 mi SSE 6.9 mph - N/A   Clear